Regional Weather Roundup
Issued by NWS

Home | Current Version | Previous Version | Text Only | Print | Product List | Glossary Off
Versions: 1 2 3 4 5 6 7 8 9 10 11 12 13 14 15 16 17 18 19 20 21 22 23 24 25 26 27 28 29 30 31 32 33 34 35 36 37 38 39 40 41 42 43 44 45 46 47 48 49 50

000
ASUS43 KFSD 272302
RWRSD

WEATHER ROUNDUP FOR SOUTH DAKOTA
NATIONAL WEATHER SERVICE SIOUX FALLS SD
600 PM CDT SUN JUL 27 2014

NOTE: "FAIR" INDICATES FEW OR NO CLOUDS BELOW 12,000 FEET WITH NO
SIGNIFICANT WEATHER AND/OR OBSTRUCTIONS TO VISIBILITY.


SDZ001>005-009-010-012>017-280000-
NORTHWEST AND NORTH CENTRAL SOUTH DAKOTA

CITY           SKY/WX    TMP DP  RH WIND       PRES   REMARKS
BUFFALO          N/A     77  50  38 N7G17     30.22S
FAITH            N/A     76  53  44 N14       30.27R
MOBRIDGE       MOSUNNY   73  54  51 N15       30.23R
$$

SDZ012>016-024>037-041>051-057-063-072>074-280000-
SOUTHWEST AND SOUTH CENTRAL SOUTH DAKOTA

CITY           SKY/WX    TMP DP  RH WIND       PRES   REMARKS
RAPID CTY ARPT SUNNY     82  48  30 N12       30.27F
PIERRE         MOSUNNY   78  53  41 N17       30.22R
CUSTER         SUNNY     73  49  42 E13G20    30.39S
ELLSWORTH AFB  SUNNY     82  46  28 NE13      30.26F
PHILIP         SUNNY     82  51  34 N13G20    30.22F
PINE RIDGE     SUNNY     80  51  36 NE9       30.27F
WINNER         FAIR      82  50  32 N18       30.21S
$$

SDZ004>011-016>023-039-040-280000-
NORTHEAST SOUTH DAKOTA

CITY           SKY/WX    TMP DP  RH WIND       PRES   REMARKS
ABERDEEN       CLOUDY    66  55  67 N13       30.21S
WATERTOWN      CLOUDY    63  59  87 NW15G26   30.18R
SISSETON         N/A     67  58  72 N16       30.16S
$$

SDZ017-020-022-023-036>040-048>070-280000-
SOUTHEAST SOUTH DAKOTA

CITY           SKY/WX    TMP DP  RH WIND       PRES   REMARKS
SIOUX FALLS    CLOUDY    68  55  63 N17G26    30.16S
HURON          CLOUDY    69  54  58 N20G26    30.19S
CHAMBERLAIN    SUNNY     76  53  44 N14G20    30.20S
MITCHELL       MOSUNNY   72  57  59 N17G26    30.19R
YANKTON        MOSUNNY   73  57  56 N14G20    30.15S
$$

ABBREVIATIONS USED IN REMARKS
   TC - TEMPERATURE IN CELSIUS
  WCI - WIND CHILL INDEX
   HX - HEAT INDEX
  VSB - VISIBILITY




USA.gov is the U.S. government's official web portal to all federal, state and local government web resources and services.